Location: Unspecified
(33.2407°S, 0.0000°E)
Time: 21:22:08
(UTC+00:00)

Envisat - Pass Details

Date: 22 May 2019
Orbit: 764 x 766 km, 98.1° (Epoch: 19 June)

Event Time Altitude Azimuth Distance (km) Brightness Sun altitude
Exits shadow 19:00:30 44° 39° (NE) 1,061 3.5 -24.0°
Drops below altitude 10° 19:04:20 10° 3° (N) 2,302 5.5 -24.8°
Sets 19:06:40 0° 359° (N) 3,220 6.4 -25.3°
